"Pseudo-MPEC" for A118n8v

Created 2024 Jul 17 10:22:02 UT using Find_Orb

Click here for an explanation of pseudo-MPECs

 
 Astrometry: 
     A118n8v* C2024 07 12.22174520 54 28.644-08 56 27.42   ~7CB7 16.32oVNEOCPW68
     A118n8v  C2024 07 12.22402220 55 05.899-08 50 24.04   ~7CB7 19.39oVNEOCPW68
     A118n8v  C2024 07 12.22764720 56 05.928-08 40 34.32   ~7CB7 16.28oVNEOCPW68
     A118n8v  C2024 07 12.23309820 57 36.046-08 25 41.27   ~7CB7 16.32oVNEOCPW68
     A118n8v  C2024 07 12.28525121 12 34.562-05 49 42.89   ~7CB7 16.39oVNEOCPW68

Station data:
(W68) ATLAS Chile, Rio Hurtado  (S30.471010 W70.764980)  Chile.  Observers L.
   Denneau, R. Siverd, J. Tonry, H. Weiland. Measurers L. Denneau, N.
   Erasmus, A. Fitzsimmons, A. Lawrence, J. Robinson, R. Siverd, J. Tonry, H.
   Weiland. 0.5-m reflector + CCD.

Orbital elements:  A118n8v
   Perigee 2024 Jul 11.59152 +/- 0.0391 TT = 14:11:47 (JD 2460503.09152)
Epoch 2024 Jul 12.0 TT = JDT 2460503.5                           AutoNEOCP
M 142.60364624 +/- 7                (J2000 equator)
n 349.10840851 +/- 15               Peri.  144.27033 +/- 1.2
a 43115.1564 +/- 1237               Node   335.12116 +/- 0.12
e   0.6793534 +/- 0.00911           Incl.   26.51951 +/- 0.07
P1484.898m/1.031d          H 32.92  G  0.15   U 14.6
q 13824.7273 +/- 785    Q 72405.5856 +/- 1697
From 5 observations 2024 July 12 (91.4 min); mean residual 1".11
Residuals in arcseconds: 
240712 W68  .89+  .64+    240712 W68  1.6+  1.2+    240712 W68  .00   .00     
240712 W68  2.1-  1.5-    240712 W68  .42-  .32-    

Ephemerides (geocentric):
Date (UTC) HH   RA             Dec           delta  r     elong  mag " sig PA
---- --------  ------------   ------------  ------ ------ -----  --- --------
2024 07 17 10  21 04 43.861   -09 06 21.09   67743 1.0167 157.9 17.3  21d  65
2024 07 17 11  21 21 12.460   -07 10 39.95   64802 1.0167 153.5 17.3  21d  64
2024 07 17 12  21 39 19.019   -04 59 50.95   61070 1.0166 148.6 17.4  23d  64
2024 07 17 13  21 59 56.489   -02 27 35.01   56478 1.0166 142.9 17.3  25d  64
2024 07 17 14  22 24 33.721   +00 36 21.24   50928 1.0165 136.1 17.3  28d  64
2024 07 17 15  22 55 59.170   +04 29 47.56   44291 1.0165 127.4 17.2  32d  64
2024 07 17 16  23 40 30.398   +09 46 23.45   36400 1.0164 115.3 17.2  40d  65
2024 07 17 17  00 56 18.135   +17 28 50.14   27131 1.0163  95.4 17.2  55d  70
2024 07 17 18  03 57 13.346   +26 23 57.36   17270 1.0162  52.9 18??  93d  88
2024 07 17 19  10 09 57.102   +01 12 16.77   14761 1.0162  39.6 19?? 179d 118
2024 07 17 20  13 53 09.009   -21 49 11.68   23694 1.0163  98.5 16.8 130d 105
2024 07 17 21  15 40 47.203   -26 10 50.23   33384 1.0164 123.3 16.8 116d  94
2024 07 17 22  16 43 56.399   -26 22 44.73   41743 1.0165 137.4 16.8 118d  87
2024 07 17 23  17 26 55.245   -25 31 08.26   48790 1.0165 147.0 16.9 137d  82
2024 07 18 00  17 59 11.456   -24 20 27.56   54696 1.0166 154.3 16.9 163d  79
2024 07 18 01  18 25 06.646   -23 03 48.25   59604 1.0166 160.2 17.0  88d  76
2024 07 18 02  18 46 58.599   -21 45 24.49   63622 1.0167 165.2 16.9  57d  74
2024 07 18 03  19 06 07.788   -20 26 31.25   66828 1.0167 169.6 16.9  43d  73
2024 07 18 04  19 23 25.353   -19 07 14.66   69278 1.0167 173.3 16.8  36d  71
2024 07 18 05  19 39 26.314   -17 47 10.66   71010 1.0167 175.8 Sha   31d  70
2024 07 18 06  19 54 36.468   -16 25 39.05   72052 1.0167 175.4 Sha   28d  69
2024 07 18 07  20 09 16.346   -15 01 47.86   72419 1.0167 172.7 16.9  26d  68
2024 07 18 08  20 23 43.753   -13 34 32.89   72116 1.0167 169.3 17.0  25d  67
2024 07 18 09  20 38 15.689   -12 02 34.23   71138 1.0167 165.7 17.2  25d  66
2024 07 18 10  20 53 10.110   -10 24 09.57   69471 1.0167 161.9 17.2  25d  65
2024 07 18 11  21 08 48.030   -08 37 02.87   67090 1.0167 157.7 17.3  25d  65
2024 07 18 12  21 25 36.549   -06 38 05.26   63957 1.0166 153.2 17.3  26d  64
2024 07 18 13  21 44 14.023   -04 22 41.49   60018 1.0166 148.2 17.3  27d  64
2024 07 18 14  22 05 40.073   -01 43 47.30   55196 1.0165 142.3 17.3  29d  64
2024 07 18 15  22 31 37.555   +01 30 15.98   49388 1.0165 135.1 17.3  33d  64
2024 07 18 16  23 05 28.698   +05 40 11.76   42454 1.0164 125.8 17.2  38d  64
2024 07 18 17  23 55 11.516   +11 25 43.47   34221 1.0163 112.3 17.1  48d  66
2024 07 18 18  01 25 46.663   +19 54 26.78   24633 1.0162  89.0 17.3  67d  72
2024 07 18 19  05 20 56.790   +25 41 04.92   15315 1.0161  35.2 20?? 116d  97
2024 07 18 20  11 24 00.969   -07 53 36.67   16480 1.0162  59.2 18?? 156d 115
2024 07 18 21  14 27 07.608   -23 45 06.84   26211 1.0163 105.6 16.8 116d 102
2024 07 18 22  15 59 41.943   -26 25 21.00   35607 1.0163 126.6 16.8 103d  92
2024 07 18 23  16 56 22.175   -26 12 34.94   43625 1.0164 139.2 16.9 101d  86
2024 07 19 00  17 36 02.448   -25 13 34.40   50373 1.0165 148.0 17.0 110d  82
2024 07 19 01  18 06 23.938   -24 00 25.95   56019 1.0165 154.9 17.0 136d  78
2024 07 19 02  18 31 07.024   -22 42 56.23   60697 1.0166 160.6 17.0 153d  76
2024 07 19 03  18 52 11.059   -21 24 14.43   64506 1.0166 165.4 16.9  86d  74
2024 07 19 04  19 10 47.322   -20 05 11.13   67519 1.0166 169.7 16.9  59d  72
2024 07 19 05  19 27 41.982   -18 45 42.06   69787 1.0166 173.3 16.8  46d  71
2024 07 19 06  19 43 27.231   -17 25 17.99   71346 1.0167 175.6 Sha   39d  70
2024 07 19 07  19 58 27.230   -16 03 15.42   72219 1.0167 175.2 26.2  35d  69
2024 07 19 08  20 13 01.603   -14 38 39.38   72419 1.0167 172.6 16.9  32d  68
2024 07 19 09  20 27 27.771   -13 10 22.15   71949 1.0166 169.2 17.0  30d  67